[[{"header":{"parameterUnit":"m.s-1","parameterCategory":1,"la1":30.2991,"la2":30.254,"lo1":-89.0895,"lo2":-89.0444,"dy":0.0017,"dx":0.0017,"nx":28,"ny":28,"refTime":"2024-04-13T21:00:00:Z","depth":0,"parameterNumber":2,"parameterNumberName":"U-component_of_WINDS"},"data":[0,0,0,0,0,0,0,0,0,0,0,0,0,0,0,0,0,0,0,0,0,0,0,0,0,0,0,0,0,0,0,0,0,0,0,0,0,0,0,0,0,0,0,0,0,0,0,0,0,0,0,0,0,0,0,0,0,0,0.1615,0.1615,0,0.161,0.161,0.161,0.1624,0.1625,0.1625,0.1626,0.162,0.1619,0.1619,0,0,0,0,0,0,0,0,0,0,0,0,0,0.1635,0.1635,0.1615,0.1615,0.1615,0.161,0.161,0.161,0.1624,0.1625,0.1625,0.1626,0.162,0.1619,0.1619,0,0,0,0,0,0,0,0,0,0,0,0,0,0.1628,0.1635,0.1615,0.1622,0.1622,0.161,0.161,0.161,0.1624,0.1625,0.1626,0.1626,0.162,0.1619,0.1619,0.16,0,0,0.1616,0.1616,0,0,0,0,0,0,0,0,0.1628,0.1627,0.1621,0.1621,0.1622,0.1619,0.1615,0.1607,0.1624,0.1623,0.1626,0.1627,0.1619,0.1618,0.1616,0.16,0.1599,0.1616,0.1615,0.1615,0.1615,0,0,0,0,0,0,0,0.1629,0.1628,0.1613,0.1621,0.1621,0.1624,0.1624,0.1614,0.1617,0.1624,0.1625,0.1624,0.1619,0.1617,0.1616,0.1599,0.1616,0.1615,0.1615,0.1614,0.1566,0.1565,0,0,0,0,0,0,0.1629,0.1628,0.1613,0.1613,0.1627,0.1623,0.1623,0.1619,0.1618,0.1618,0.1623,0.1625,0.1618,0.1617,0.1616,0.1592,0.1615,0.1614,0.1614,0.1567,0.1566,0.1565,0,0,0,0,0,0,0.1629,0.1627,0.1614,0.1621,0.1619,0.1622,0.1618,0.1619,0.1616,0.1617,0.1618,0.162,0.1618,0.1617,0.1603,0.1592,0.1614,0.1613,0.1568,0.1566,0.1565,0.1547,0,0,0,0,0,0,0.163,0.1627,0.1621,0.1621,0.1619,0.1602,0.1617,0.1618,0.1614,0.1616,0.1614,0.1615,0.1619,0.1605,0.1602,0.1592,0.1612,0.1569,0.1567,0.1566,0.1548,0.1545,0.1542,0,0,0,0,0,0.163,0.1616,0.162,0.1619,0.1611,0.1601,0.16,0.1605,0.1614,0.1606,0.1607,0.1615,0.1594,0.1603,0.1601,0.159,0.1569,0.1568,0.1566,0.155,0.1546,0.1542,0,0,0,0,0,0,0.1615,0.1616,0.1621,0.1606,0.1603,0.1604,0.1595,0.1601,0.1596,0.1597,0.1604,0.1603,0.1588,0.1588,0.1598,0.1571,0.1583,0.1581,0.1571,0.1568,0.1565,0.1565,0.1612,0,0,0,0,0,0.161,0.1602,0.1604,0.159,0.1589,0.1592,0.1588,0.1592,0.159,0.1588,0.1588,0.1585,0.1578,0.1573,0.1566,0.1548,0.1547,0.1539,0.1536,0.1534,0.1532,0.152,0.1516,0.1559,0.1559,0.1559,0,0,0.1599,0.1599,0.1594,0.1587,0.1586,0.1577,0.1591,0.1582,0.1575,0.1587,0.1574,0.1574,0.1571,0.1554,0.1547,0.1554,0.152,0.1532,0.153,0.1529,0.1518,0.1514,0.1511,0.1558,0.1558,0.1559,0,0,0.1574,0.1574,0.1562,0.156,0.1558,0.156,0.1557,0.1556,0.1556,0.1544,0.1552,0.1544,0.1532,0.1528,0.1525,0.1499,0.1505,0.1497,0.148,0.1469,0.1466,0.1463,0.1452,0.1448,0.1494,0.1494,0.1494,0,0.1561,0.1549,0.1555,0.1545,0.1541,0.1552,0.1539,0.1537,0.1532,0.1529,0.1536,0.152,0.1519,0.1501,0.1495,0.1492,0.1488,0.1496,0.1466,0.1463,0.146,0.145,0.1446,0.1493,0.1493,0.1493,0.1494,0,0.1532,0.1524,0.1514,0.1509,0.1505,0.1493,0.1497,0.1492,0.1496,0.1497,0.1483,0.1482,0.1474,0.1471,0.1475,0.1454,0.1457,0.1465,0.1478,0.1455,0.1445,0.1442,0.1492,0.1492,0.1492,0.1493,0,0,0.1497,0.1496,0.1492,0.1489,0.1487,0.148,0.1469,0.1462,0.1456,0.1453,0.1442,0.1431,0.1438,0.1435,0.1439,0.1429,0.1406,0.1438,0.1438,0.1431,0.1381,0.1374,0.1369,0.1411,0.141,0.141,0.138,0,0.1472,0.1453,0.1458,0.1438,0.143,0.1439,0.1429,0.1426,0.1427,0.1419,0.142,0.1411,0.1422,0.142,0.1411,0.1411,0.1396,0.1413,0.14,0.14,0.1399,0.1364,0.1357,0.133,0.1377,0.1376,0.1376,0,0.144,0.1435,0.1414,0.1412,0.1409,0.14,0.1393,0.1386,0.1383,0.1384,0.1379,0.1385,0.1372,0.1386,0.1368,0.138,0.1375,0.1374,0.1373,0.1371,0.1385,0.136,0.1321,0.1316,0.137,0.1371,0.1371,0,0.1415,0.1403,0.1389,0.1386,0.1384,0.1377,0.1376,0.1373,0.1368,0.1362,0.1359,0.1351,0.1347,0.1341,0.1344,0.1354,0.1325,0.1339,0.1325,0.1325,0.1317,0.1318,0.1276,0.1317,0.1317,0.1317,0.1317,0,0.1385,0.1372,0.1377,0.1368,0.1353,0.1359,0.1344,0.1344,0.1341,0.1331,0.134,0.1331,0.1336,0.1327,0.1329,0.1313,0.1312,0.1311,0.1312,0.131,0.131,0.1306,0.1307,0.1316,0.1316,0.1316,0.1316,0,0.1354,0.1357,0.1342,0.1341,0.134,0.1329,0.1328,0.1319,0.1321,0.1308,0.1306,0.1308,0.1298,0.13,0.1289,0.1291,0.127,0.1274,0.1272,0.1272,0.1257,0.1257,0.121,0.1203,0.1249,0.1249,0.1249,0,0.1334,0.1324,0.1322,0.1316,0.1314,0.1305,0.13,0.1305,0.1299,0.1294,0.1286,0.1276,0.1269,0.1252,0.1252,0.1243,0.1246,0.123,0.1244,0.1242,0.1243,0.1243,0.1242,0.1226,0.1226,0.1225,0.1225,0,0.1298,0.13,0.1292,0.1285,0.1279,0.1273,0.1268,0.1263,0.1268,0.1261,0.125,0.1245,0.1233,0.1223,0.1215,0.1213,0.1219,0.122,0.1216,0.1213,0.1211,0.1211,0.1262,0.1221,0.1221,0.1222,0.1222,0.1222,0.127,0.1261,0.1258,0.1249,0.1246,0.1241,0.1233,0.1233,0.1224,0.1216,0.1219,0.1207,0.1203,0.1192,0.1189,0.1179,0.1185,0.118,0.1178,0.1176,0.1173,0.1214,0.1178,0.1178,0.1178,0.1178,0.1178,0,0.1233,0.1231,0.1223,0.1216,0.1209,0.1216,0.1211,0.1204,0.1193,0.1189,0.1182,0.1169,0.1159,0.1158,0.1149,0.1141,0.1143,0.1138,0.1138,0.1137,0.1169,0.1173,0.1136,0.1136,0.1136,0.1136,0.1136,0.1136,0.1212,0.1197,0.1199,0.1182,0.118,0.1168,0.1164,0.116,0.1156,0.1142,0.1134,0.1134,0.113,0.112,0.1111,0.1111,0.1107,0.11,0.1101,0.1131,0.1135,0.1139,0.1142,0.1099,0.1099,0.1069,0.1069,0.1068]},{"header":{"parameterUnit":"m.s-1","parameterCategory":1,"la1":30.2991,"la2":30.254,"lo1":-89.0895,"lo2":-89.0444,"dy":0.0017,"dx":0.0017,"nx":28,"ny":28,"refTime":"2024-04-13T21:00:00:Z","depth":0,"parameterNumber":3,"parameterNumberName":"V-component_of_WINDS"},"data":[0,0,0,0,0,0,0,0,0,0,0,0,0,0,0,0,0,0,0,0,0,0,0,0,0,0,0,0,0,0,0,0,0,0,0,0,0,0,0,0,0,0,0,0,0,0,0,0,0,0,0,0,0,0,0,0,0,0,2.9117,2.9117,0,2.9118,2.9118,2.9118,2.9117,2.9117,2.9117,2.9117,2.9115,2.9115,2.9115,0,0,0,0,0,0,0,0,0,0,0,0,0,2.9112,2.9112,2.9117,2.9117,2.9117,2.9118,2.9118,2.9118,2.9117,2.9117,2.9117,2.9117,2.9115,2.9115,2.9115,0,0,0,0,0,0,0,0,0,0,0,0,0,2.9114,2.9112,2.9117,2.9117,2.9117,2.9118,2.9118,2.9118,2.9117,2.9117,2.9117,2.9117,2.9115,2.9115,2.9115,2.9116,0,0,2.9115,2.9115,0,0,0,0,0,0,0,0,2.9114,2.9114,2.9117,2.9117,2.9117,2.9117,2.9116,2.9117,2.9117,2.9117,2.9117,2.9117,2.9115,2.9115,2.9116,2.9116,2.9115,2.9115,2.9115,2.9115,2.9115,0,0,0,0,0,0,0,2.9113,2.9114,2.9117,2.9117,2.9117,2.9116,2.9116,2.9116,2.9116,2.9117,2.9117,2.9117,2.9115,2.9116,2.9115,2.9115,2.9115,2.9115,2.9115,2.9115,2.9117,2.9117,0,0,0,0,0,0,2.9114,2.9114,2.9117,2.9117,2.9115,2.9116,2.9116,2.9117,2.9116,2.9116,2.9117,2.9117,2.9116,2.9116,2.9115,2.9117,2.9115,2.9115,2.9115,2.9117,2.9117,2.9118,0,0,0,0,0,0,2.9114,2.9114,2.9117,2.9116,2.9116,2.9116,2.9117,2.9117,2.9117,2.9117,2.9116,2.9117,2.9116,2.9115,2.9116,2.9117,2.9115,2.9114,2.9117,2.9117,2.9117,2.9121,0,0,0,0,0,0,2.9114,2.9114,2.9115,2.9116,2.9116,2.9119,2.9117,2.9117,2.9118,2.9118,2.9117,2.9116,2.9116,2.9116,2.9116,2.9117,2.9114,2.9117,2.9117,2.9117,2.912,2.9121,2.9121,0,0,0,0,0,2.9113,2.9115,2.9115,2.9115,2.9117,2.9119,2.9119,2.9119,2.9118,2.9118,2.9118,2.9117,2.9117,2.9116,2.9116,2.9117,2.9117,2.9117,2.9117,2.912,2.9121,2.9121,0,0,0,0,0,0,2.9112,2.9115,2.9115,2.9117,2.9118,2.9118,2.9119,2.9119,2.9119,2.9119,2.9118,2.9117,2.9118,2.9118,2.9117,2.9119,2.9117,2.9117,2.9119,2.912,2.912,2.912,2.9114,0,0,0,0,0,2.9113,2.9115,2.9116,2.9118,2.9118,2.9119,2.9119,2.9119,2.912,2.912,2.9119,2.9119,2.9119,2.9119,2.9119,2.912,2.912,2.9121,2.9122,2.9122,2.9122,2.9123,2.9124,2.9118,2.9118,2.9118,0,0,2.9113,2.9114,2.9115,2.9118,2.9118,2.912,2.9119,2.912,2.9121,2.9119,2.9121,2.912,2.912,2.9121,2.9122,2.9121,2.9124,2.9122,2.9122,2.9122,2.9124,2.9124,2.9125,2.9118,2.9118,2.9118,0,0,2.9114,2.9115,2.9117,2.9119,2.912,2.9121,2.9121,2.9122,2.9123,2.9124,2.9123,2.9124,2.9124,2.9124,2.9124,2.9127,2.9126,2.9127,2.9129,2.9131,2.9131,2.9131,2.9133,2.9133,2.9127,2.9127,2.9127,0,2.9114,2.9117,2.9118,2.912,2.9121,2.9121,2.9123,2.9124,2.9125,2.9125,2.9125,2.9126,2.9126,2.9127,2.9128,2.9128,2.9129,2.9127,2.9131,2.9131,2.9132,2.9133,2.9134,2.9127,2.9127,2.9127,2.9127,0,2.9117,2.9119,2.912,2.9123,2.9124,2.9126,2.9127,2.9128,2.9128,2.9129,2.913,2.913,2.9131,2.9131,2.913,2.9133,2.9133,2.9131,2.913,2.9133,2.9134,2.9134,2.9128,2.9128,2.9128,2.9128,0,0,2.9116,2.9121,2.9122,2.9123,2.9126,2.9127,2.9129,2.9131,2.9132,2.9133,2.9135,2.9136,2.9135,2.9135,2.9135,2.9136,2.9139,2.9135,2.9135,2.9136,2.9143,2.9144,2.9145,2.9139,2.9139,2.9139,2.9143,0,2.9118,2.9123,2.9125,2.9128,2.913,2.9131,2.9133,2.9135,2.9135,2.9137,2.9137,2.9138,2.9137,2.9137,2.9139,2.9139,2.9141,2.9138,2.914,2.914,2.9141,2.9145,2.9146,2.915,2.9144,2.9144,2.9144,0,2.912,2.9123,2.9128,2.9131,2.9132,2.9134,2.9137,2.9138,2.914,2.914,2.9142,2.9141,2.9143,2.9142,2.9144,2.9143,2.9143,2.9144,2.9144,2.9144,2.9142,2.9146,2.9151,2.9152,2.9144,2.9144,2.9144,0,2.912,2.9125,2.9129,2.913,2.9134,2.9136,2.9137,2.9139,2.9141,2.9143,2.9144,2.9145,2.9146,2.9147,2.9147,2.9146,2.915,2.9148,2.915,2.915,2.9151,2.9151,2.9157,2.9151,2.9151,2.9151,2.9151,0,2.9122,2.9125,2.9129,2.9131,2.9135,2.9137,2.9139,2.9141,2.9143,2.9145,2.9145,2.9147,2.9147,2.9149,2.9149,2.9152,2.9152,2.9152,2.9152,2.9152,2.9152,2.9153,2.9153,2.9151,2.9151,2.9151,2.9151,0,2.9123,2.9126,2.913,2.9134,2.9135,2.9138,2.9141,2.9143,2.9144,2.9147,2.9148,2.915,2.9152,2.9152,2.9154,2.9155,2.9158,2.9157,2.9158,2.9158,2.916,2.916,2.9167,2.9168,2.9161,2.9161,2.9161,0,2.9124,2.9126,2.9131,2.9134,2.9136,2.9139,2.9141,2.9143,2.9145,2.9149,2.915,2.9153,2.9155,2.9159,2.916,2.9162,2.9162,2.9164,2.9162,2.9162,2.9162,2.9162,2.9163,2.9164,2.9164,2.9164,2.9164,0,2.9126,2.9127,2.9131,2.9136,2.9139,2.9142,2.9145,2.9146,2.9149,2.9151,2.9155,2.9157,2.916,2.9163,2.9165,2.9166,2.9165,2.9165,2.9166,2.9166,2.9167,2.9167,2.9159,2.9165,2.9165,2.9165,2.9165,2.9165,2.9127,2.9129,2.9134,2.9138,2.9142,2.9145,2.9148,2.915,2.9153,2.9157,2.9158,2.9162,2.9164,2.9167,2.9169,2.9171,2.917,2.9171,2.9171,2.9172,2.9172,2.9166,2.9171,2.9171,2.9171,2.9171,2.9171,0,2.9129,2.9133,2.9137,2.9142,2.9146,2.9147,2.915,2.9153,2.9157,2.916,2.9163,2.9167,2.917,2.9172,2.9175,2.9176,2.9177,2.9177,2.9177,2.9178,2.9172,2.9172,2.9177,2.9177,2.9177,2.9177,2.9177,2.9177,2.9131,2.9136,2.9138,2.9145,2.9148,2.9153,2.9155,2.9159,2.9161,2.9166,2.917,2.9171,2.9174,2.9177,2.918,2.9181,2.9182,2.9183,2.9183,2.9178,2.9178,2.9177,2.9177,2.9183,2.9183,2.9188,2.9188,2.9188]}]]